Location: Betpouey
(42.8833°N, 0.0333°E)
Time: 05:00:22
(UTC+00:00)

Meteor 2-13 Rocket - Pass Details

Date: 27 June 2021
Orbit: 935 x 958 km, 82.5° (Epoch: 26 July)

Event Time Altitude Azimuth Distance (km) Brightness Sun altitude
Exits shadow 00:36:29 35° 238° (WSW) 1,505 5.1 -23.3°
Maximum altitude 00:38:30 46° 284° (WNW) 1,263 5.1 -23.3°
Drops below altitude 10° 00:44:26 10° 357° (N) 2,697 7.9 -23.1°
Sets 00:47:04 0° 3° (N) 3,645 8.9 -23.0°
